Simultaneous Nadir Overpasses (SNOs) Predictions

Prediction of SNOs between GOES-16 and METOP-B Satellite Orbit:

Table of predicted SNOs for the next 14.0 days since TLE Epoch: 2/13/2025
Index Date Time (GOES-16) GOES-16 Lat,Lon METOP-B Lat,Lon Distance(km) Time Diff (sec)
1 02/14/2025 02:24:08 -0.01, -75.17 -0.50, -77.52 267.10 80
2 02/15/2025 02:00:52 -0.02, -75.17 0.56, -72.54 299.71 80
3 02/16/2025 14:19:50 0.02, -75.22 0.42, -77.15 219.57 80
4 02/17/2025 14:01:54 0.02, -75.23 -0.64, -72.17 347.63 80
5 02/19/2025 02:21:00 -0.02, -75.20 -0.35, -76.82 183.53 80
6 02/20/2025 01:57:44 -0.01, -75.21 0.72, -71.84 383.67 80
7 02/21/2025 14:16:42 0.02, -75.26 0.25, -76.45 135.25 80
8 02/22/2025 13:58:45 0.02, -75.27 -0.83, -71.48 432.43 80
9 02/24/2025 02:17:51 -0.01, -75.25 -0.21, -76.11 98.32 80
10 02/25/2025 01:54:35 -0.00, -75.26 0.93, -71.15 469.31 80
11 02/26/2025 14:13:33 0.00, -75.32 0.08, -75.75 49.05 80
